Le nostre stazioni meteo in Italia

Pubblicità
Il mio iltempo24.it
Roma/Ciampino, Italia (16239): Temperatura & dewpoint: 24.03.2020 11:00:00 - 30.03.2020 11:00:00 (CEST)Roma/Ciampino, Italia (16239): velocità del vento: 24.03.2020 11:00:00 - 30.03.2020 11:00:00 (CEST)Roma/Ciampino, Italia (16239): direzione del vento: 24.03.2020 11:00:00 - 30.03.2020 11:00:00 (CEST)Roma/Ciampino, Italia (16239): reduced air pressure: 24.03.2020 11:00:00 - 30.03.2020 11:00:00 (CEST)Roma/Ciampino, Italia (16239): visibility: 24.03.2020 11:00:00 - 30.03.2020 11:00:00 (CEST)Roma/Ciampino, Italia (16239): precipitazioni: 24.03.2020 11:00:00 - 30.03.2020 11:00:00 (CEST)
Data & Tempo tt [°C] td [°C] ff [km/h] ff [kn] dd ppp [hPa] vv [km] rr [mm]
30.03.2020 11:00:00 15,0 9,0 2 1 - - 10 -
30.03.2020 10:00:00 13,0 10,0 4 2 - - 10 -
30.03.2020 09:00:00 11,0 8,0 4 2 - - 10 -
30.03.2020 08:00:00 8,8 7,1 5 3 NNE 1011,6 10 -
30.03.2020 07:00:00 - - - - - - - -
30.03.2020 06:00:00 - - - - - - - -
30.03.2020 05:00:00 8,7 7,2 2 1 S 1011,5 - 0,0
30.03.2020 04:00:00 - - - - - - - -
30.03.2020 03:00:00 - - - - - - - -
30.03.2020 02:00:00 10,5 8,3 2 1 SE 1012,4 - -
30.03.2020 01:00:00 - - - - - - - -
30.03.2020 00:00:00 - - - - - - - -
29.03.2020 23:00:00 12,0 9,1 4 2 - 1013,3 10 0,0
29.03.2020 22:00:00 12,0 10,0 4 2 - - 10 -
29.03.2020 21:00:00 12,0 9,0 5 3 SO - 10 -
29.03.2020 20:00:00 12,5 8,8 4 2 O 1012,5 10 -
29.03.2020 19:00:00 14,0 9,0 11 6 O - 10 -
29.03.2020 18:00:00 15,0 9,0 13 7 OSO - 10 -
29.03.2020 17:00:00 15,1 8,2 15 8 OSO 1011,8 10 0,0
29.03.2020 16:00:00 17,0 9,0 18 10 SO - 10 -
29.03.2020 15:00:00 16,0 9,0 8 4 O - 10 -
29.03.2020 14:00:00 16,2 9,2 9 5 O 1012,9 10 -
29.03.2020 13:00:00 16,0 10,0 13 7 OSO - 10 -
29.03.2020 12:00:00 15,0 8,0 5 3 - - 10 -
29.03.2020 11:00:00 13,9 8,2 4 2 - 1014,2 10 0,0
29.03.2020 10:00:00 13,0 8,0 4 2 - - 10 -
29.03.2020 09:00:00 11,0 7,0 4 2 SE - 10 -
29.03.2020 08:00:00 8,7 6,7 2 1 - 1013,8 10 -
29.03.2020 07:00:00 - - - - - - - -
29.03.2020 06:00:00 - - - - - - - -
29.03.2020 05:00:00 9,7 7,8 5 3 SSE 1014,0 - 0,0
29.03.2020 04:00:00 - - - - - - - -
29.03.2020 03:00:00 - - - - - - - -
29.03.2020 02:00:00 10,7 9,0 2 1 N 1015,0 - -
29.03.2020 01:00:00 - - - - - - - -
29.03.2020 00:00:00 12,0 9,0 5 3 SE - 10 -
28.03.2020 23:00:00 11,5 8,7 4 2 SE 1014,9 10 0,0
28.03.2020 22:00:00 12,0 8,0 4 2 S - 10 -
28.03.2020 21:00:00 12,0 8,0 5 3 S - 10 -
28.03.2020 20:00:00 11,5 7,5 8 4 SO 1013,6 10 -
28.03.2020 19:00:00 12,0 7,0 11 6 SSO - 10 -
28.03.2020 18:00:00 13,0 7,0 16 9 SSO - 10 -
28.03.2020 17:00:00 13,4 8,4 13 7 SSO 1012,9 10 0,0
28.03.2020 16:00:00 12,0 9,0 11 6 S - 10 -
28.03.2020 15:00:00 15,0 8,0 5 3 SSO - 10 -
28.03.2020 14:00:00 14,0 7,6 8 4 SO 1013,5 10 -
28.03.2020 13:00:00 14,0 8,0 4 2 - - 10 -
28.03.2020 12:00:00 12,0 9,0 4 2 - - 10 -
28.03.2020 11:00:00 11,0 8,4 9 5 NNE 1013,6 10 0,0
28.03.2020 10:00:00 11,0 9,0 11 6 NNE - 10 -
28.03.2020 09:00:00 10,0 8,0 5 3 N - 10 -
28.03.2020 08:00:00 9,2 7,3 5 3 NE 1012,7 - -
28.03.2020 07:00:00 - - - - - - - -
28.03.2020 06:00:00 - - - - - - - -
28.03.2020 05:00:00 9,3 8,3 4 2 NE 1012,7 - 0,0
28.03.2020 04:00:00 - - - - - - - -
28.03.2020 03:00:00 - - - - - - - -
28.03.2020 02:00:00 10,2 8,0 4 2 ENE 1013,6 - -
28.03.2020 01:00:00 - - - - - - - -
28.03.2020 00:00:00 11,0 9,0 4 2 - - 10 -
27.03.2020 23:00:00 10,4 8,0 8 4 E 1013,4 10 0,0
27.03.2020 22:00:00 11,0 9,0 8 4 ENE - 10 -
27.03.2020 21:00:00 12,0 8,0 5 3 ESE - 10 -
27.03.2020 20:00:00 11,6 6,9 8 4 SO 1011,6 10 -
27.03.2020 19:00:00 13,0 7,0 11 6 S - 10 -
27.03.2020 18:00:00 13,0 8,0 18 10 S - 10 -
27.03.2020 17:00:00 13,6 7,5 16 9 S 1009,7 10 0,0
27.03.2020 16:00:00 14,0 7,0 28 15 S - 10 -
27.03.2020 15:00:00 15,0 7,0 24 13 S - 10 -
27.03.2020 14:00:00 14,1 9,1 21 11 S 1008,5 10 -
27.03.2020 13:00:00 14,0 8,0 21 11 S - 10 -
27.03.2020 12:00:00 14,0 8,0 9 5 O - 10 -
27.03.2020 11:00:00 13,6 8,1 4 2 - 1007,6 10 0,0
27.03.2020 10:00:00 12,0 9,0 9 5 NE - 10 -
27.03.2020 09:00:00 10,0 8,0 5 3 NNO - 10 -
27.03.2020 08:00:00 9,1 7,8 4 2 NNE 1005,3 10 -
27.03.2020 07:00:00 9,0 8,0 5 3 S - 10 -
27.03.2020 06:00:00 8,0 7,0 2 1 SE - 10 -
27.03.2020 05:00:00 8,7 7,0 4 2 ENE 1003,7 10 0,0
27.03.2020 04:00:00 9,0 7,0 2 1 - - 10 -
27.03.2020 03:00:00 9,0 8,0 2 1 O - 10 -
27.03.2020 02:00:00 9,4 7,4 4 2 - 1004,7 10 -
27.03.2020 01:00:00 10,0 7,0 2 1 - - 10 -
27.03.2020 00:00:00 10,0 7,0 4 2 - - 10 -
26.03.2020 23:00:00 10,1 7,3 5 3 SE 1003,8 10 0,0
26.03.2020 22:00:00 11,0 7,0 9 5 N - 10 -
26.03.2020 21:00:00 10,0 7,0 8 4 N - 10 -
26.03.2020 20:00:00 10,2 7,9 9 5 N 1001,7 10 -
26.03.2020 19:00:00 11,0 7,0 13 7 NNE - 10 -
26.03.2020 18:00:00 11,0 7,0 18 10 E - 7 -
26.03.2020 17:00:00 10,9 7,3 15 8 ESE 1000,4 6 0,0
26.03.2020 16:00:00 11,0 8,0 4 2 - - 6 -
26.03.2020 15:00:00 10,0 8,0 8 4 NNE - 10 -
26.03.2020 14:00:00 9,3 6,8 11 6 N 1000,1 10 -
26.03.2020 13:00:00 8,0 6,0 8 4 NNE - 6 -
26.03.2020 12:00:00 8,0 4,0 5 3 ENE - 8 -
26.03.2020 11:00:00 7,7 3,8 4 2 - 1001,8 10 0,0
26.03.2020 10:00:00 6,0 4,0 4 2 - - 10 -
26.03.2020 09:00:00 5,0 4,0 2 1 - - 10 -
26.03.2020 08:00:00 4,9 4,0 4 2 - 1002,4 6 -
26.03.2020 07:00:00 - - - - - - - -
26.03.2020 06:00:00 - - - - - - - -
26.03.2020 05:00:00 4,9 3,7 4 2 N 1003,9 - 0,0
26.03.2020 04:00:00 - - - - - - - -
26.03.2020 03:00:00 - - - - - - - -
26.03.2020 02:00:00 5,2 3,1 5 3 N 1006,8 - -
26.03.2020 01:00:00 - - - - - - - -
26.03.2020 00:00:00 6,0 2,0 4 2 - - 10 -
25.03.2020 23:00:00 6,2 1,8 11 6 NO 1008,6 10 0,0
25.03.2020 22:00:00 8,0 0,0 11 6 E - 10 -
25.03.2020 21:00:00 8,0 -1,0 9 5 ESE - 10 -
25.03.2020 20:00:00 8,7 -2,4 4 2 - 1009,0 10 -
25.03.2020 19:00:00 9,0 -4,0 8 4 - - 10 -
25.03.2020 18:00:00 10,0 -3,0 18 10 O - 10 -
25.03.2020 17:00:00 11,4 -2,8 13 7 O 1009,3 10 0,0
25.03.2020 16:00:00 13,0 -8,0 5 3 - - 10 -
25.03.2020 15:00:00 12,0 -8,0 13 7 O - 10 -
25.03.2020 14:00:00 11,5 -7,0 5 3 - 1011,0 10 -
25.03.2020 13:00:00 10,0 -6,0 11 6 NNO - 10 -
25.03.2020 12:00:00 9,0 -6,0 8 4 - - 10 -
25.03.2020 11:00:00 7,4 -3,9 15 8 NNE 1012,7 10 0,0
25.03.2020 10:00:00 4,0 -5,0 16 9 NNE - 10 -
25.03.2020 09:00:00 2,0 -3,0 15 8 NNE - 10 -
25.03.2020 08:00:00 0,6 -3,5 13 7 ENE 1014,2 10 -
25.03.2020 07:00:00 - - - - - - - -
25.03.2020 06:00:00 - - - - - - - -
25.03.2020 05:00:00 0,0 -3,6 11 6 NE 1015,0 - 0,0
25.03.2020 04:00:00 - - - - - - - -
25.03.2020 03:00:00 - - - - - - - -
25.03.2020 02:00:00 1,2 -3,6 11 6 NE 1016,8 - -
25.03.2020 01:00:00 - - - - - - - -
25.03.2020 00:00:00 3,0 -4,0 13 7 NE - 10 -
24.03.2020 23:00:00 3,2 -4,0 16 9 NE 1017,9 10 0,0
24.03.2020 22:00:00 4,0 -4,0 15 8 NNE - 10 -
24.03.2020 21:00:00 5,0 -4,0 22 12 NNE - 10 -
24.03.2020 20:00:00 5,7 -4,0 28 15 N 1017,8 10 -
24.03.2020 19:00:00 8,0 -5,0 28 15 N - 10 -
24.03.2020 18:00:00 9,0 -5,0 29 16 NNE - 10 -
24.03.2020 17:00:00 9,3 -4,0 29 16 N 1017,5 10 0,0
24.03.2020 16:00:00 9,0 -4,0 26 14 N - 10 -
24.03.2020 15:00:00 9,0 -4,0 24 13 N - 10 -
24.03.2020 14:00:00 9,1 -2,7 44 24 N 1019,4 10 -
24.03.2020 13:00:00 8,0 -4,0 28 15 N - 10 -
24.03.2020 12:00:00 7,0 -3,0 28 15 N - 10 -
24.03.2020 11:00:00 - - - - - - - -

tt = Temperatura
td = dewpoint
ff = velocità del vento
dd = direzione del vento
ppp = reduced air pressure
vv = visibility
rr = precipitazioni

Stazioni seguenti

WeatherPro
AMSI
MeteoEarth